Regional Weather Roundup
Issued by NWS

Home | Current Version | Previous Version | Text Only | Print | Product List | Glossary On
Versions: 1 2 3 4 5 6 7 8 9 10 11 12 13 14 15 16 17 18 19 20 21 22 23 24 25 26 27 28 29 30 31 32 33 34 35 36 37 38 39 40 41 42 43 44 45 46 47 48 49 50
000
ASUS43 KOAX 300202
RWRNE
OMARWRNE ALL

WEATHER ROUNDUP FOR NEBRASKA
NATIONAL WEATHER SERVICE OMAHA NE
900 PM CDT FRI MAY 29 2015

NOTES: SATELLITE DATA IS BEING USED TO AUGMENT CLOUD COVER ABOVE
       12000 FEET.
       "FAIR" INDICATES FEW OR NO CLOUDS BELOW 12,000 FEET WITH NO
       SIGNIFICANT WEATHER AND/OR OBSTRUCTIONS TO VISIBILITY.

  * THESE STATIONS DO NOT REPORT WEATHER SUCH AS RAIN...SNOW OR FOG.

NEZ001>004-019>022-054>056-300300-
NEBRASKA PANHANDLE

CITY           SKY/WX    TMP DP  RH WIND       PRES   REMARKS
SCOTTSBLUFF    CLOUDY    50  46  86 N9        30.31R
ALLIANCE       CLOUDY    46  44  93 N8        30.28R
CHADRON        CLOUDY    49  44  83 CALM      30.29S
KIMBALL          N/A    N/A N/A N/A MISG        N/A
SIDNEY         CLOUDY    49  45  86 N15       30.29R
$$

NEZ057>060-069>072-079>082-300300-
SOUTHWEST NEBRASKA

CITY           SKY/WX    TMP DP  RH WIND       PRES   REMARKS
NORTH PLATTE   CLOUDY    51  46  83 N14G26    30.20R
IMPERIAL       CLOUDY    53  45  74 N18       30.23R
LEXINGTON      CLOUDY    53  49  86 N17G26    30.16R
MCCOOK         CLOUDY    55  48  77 N20G26    30.17R
$$

NEZ005>010-023>029-035>040-094-300300-
NORTH CENTRAL NEBRASKA

CITY           SKY/WX    TMP DP  RH WIND       PRES   REMARKS
VALENTINE      MOCLDY    47  43  86 N10       30.24S
AINSWORTH      CLOUDY    49  47  95 N18       30.22S
BROKEN BOW     CLOUDY    51  47  86 N22       30.16R
ORD            CLOUDY    50  46  86 N26G32    30.14R
$$

NEZ041-046>049-061>064-073>077-083>087-300300-
SOUTH CENTRAL NEBRASKA

CITY           SKY/WX    TMP DP  RH WIND       PRES   REMARKS
GRAND ISLAND   CLOUDY    55  47  74 N23G30    30.12R
HASTINGS       CLOUDY    56  48  74 N23G33    30.11R
KEARNEY *      CLOUDY    55  46  71 N25G33    30.13R
$$

NEZ011>018-030>034-042>045-300300-
NORTHEAST NEBRASKA

CITY           SKY/WX    TMP DP  RH WIND       PRES   REMARKS
NORFOLK        CLOUDY    52  49  89 N20G35    30.11R
BLAIR          CLOUDY    60  55  84 N23G31    29.99R
COLUMBUS *     CLOUDY    54  45  71 N17G28    30.10R
FREMONT        CLOUDY    59  54  82 NW20G25   30.04R
TEKAMAH        CLOUDY    60  54  80 N28       30.02R
$$

NEZ050>053-065>068-078-088>093-300300-
SOUTHEAST NEBRASKA

CITY           SKY/WX    TMP DP  RH WIND       PRES   REMARKS
LINCOLN        CLOUDY    63  56  78 N24G33    30.03R
OMAHA EPPLEY   CLOUDY    63  59  87 N26G33    29.97R
FALLS CITY     CLOUDY    70  65  84 S6        29.93R
PLATTSMOUTH    LGT RAIN  65  61  86 N14G22    29.97R
$$

NEZ044-045-051>053-067-300300-
OMAHA AREA

CITY           SKY/WX    TMP DP  RH WIND       PRES   REMARKS
OMAHA EPPLEY   CLOUDY    63  59  87 N26G33    29.97R
BLAIR          CLOUDY    60  55  84 N23G31    29.99R
FREMONT        CLOUDY    59  54  82 NW20G25   30.04R
OFFUTT AFB     CLOUDY    65  62  87 NW21G26   29.96R
PLATTSMOUTH    LGT RAIN  65  61  86 N14G22    29.97R
$$



USA.gov is the U.S. government's official web portal to all federal, state and local government web resources and services.